Voltar ao catálogo

CZ-6A DEB

AtivoPO
NORAD 60761·DEBRIS·🇨🇳 China

Lançado Aug 6, 2024 de Taiyuan Satellite Launch Center

Loading…

Próximas Passagens (próximas 24 horas)

TLE

AtualizadoSource: Space-Track

Época: Sep 14, 2026, 10:36 UTC

1 60761U 24140EL  26257.44228555  .00012144  00000-0  11777-2 0  9995
2 60761  88.9990 257.8875 0047092 237.3904 122.2776 14.91751509112482

Acompanhe CZ-6A DEB em tempo real com AllMySat

Download on the App Store